Tracking 28794 objects as of 19-Apr-2024
HD Live streaming from Space Station
objects crossing your sky now

COSMOS 2448 (GLONASS)

Track COSMOS 2448 (GLONASS) now!
COSMOS 2448 (GLONASS) is classified as:


NORAD ID: 33468
Int'l Code: 2008-067C
Perigee: 19,124.0 km
Apogee: 19,147.9 km
Inclination: 64.4 °
Period: 675.7 minutes
Semi major axis: 25506 km
RCS: 3.1623 m2 (large)
Launch date: December 25, 2008
Source: Commonwealth of Independent States (former USSR) (CIS)
Launch site: TYURATAM MISSILE AND SPACE COMPLEX (TTMTR)

This is satellite part of Glonass family.
Your satellite tracking list
Your tracking list is empty




NASA's NSSDC Master Catalog

Two Line Element Set (TLE):
1 33468U 08067C   24110.31678814  .00000060  00000-0  00000-0 0  9997
2 33468  64.3795  96.5048 0004684 281.3803  78.5728  2.13116001119226
Source of the keplerian elements: AFSPC